Location: Newark
(32.9900°N, 111.5400°W)
Time: 03:39:23
(UTC+00:00)

N. Korean satellite - Pass Details

Date: 29 November 2019
Orbit: 456 x 506 km, 97.2° (Epoch: 05 December)

Event Time Altitude Azimuth Distance (km) Brightness Sun altitude
Rises 12:54:23 0° 18° (NNE) 2,569 10.3 -15.5°
Reaches altitude 10° 12:56:32 10° 24° (NNE) 1,675 9.4 -15.1°
Maximum altitude 13:00:00 46° 99° (E) 654 7.7 -14.4°
Drops below altitude 10° 13:03:24 10° 174° (S) 1,635 9.5 -13.7°
Sets 13:05:28 0° 180° (S) 2,499 10.4 -13.3°
